Location: Pitton
(51.0667°N, 1.7000°W)
Time: 02:46:19
(UTC+00:00)

ADEOS Rocket - Pass Details

Date: 17 September 2019
Orbit: 859 x 1306 km, 98.7° (Epoch: 17 October)

Event Time Altitude Azimuth Distance (km) Brightness Sun altitude
Rises 19:16:39 0° 19° (NNE) 4,014 6.2 -10.0°
Reaches altitude 10° 19:19:25 10° 28° (NNE) 3,110 5.5 -10.4°
Maximum altitude 19:26:03 38° 94° (E) 1,823 3.9 -11.4°
Drops below altitude 10° 19:33:04 10° 160° (SSE) 3,295 5.4 -12.5°
Sets 19:36:04 0° 168° (SSE) 4,278 6.0 -12.9°
